| time (UTC) | temp F | wind direction | speed MPH | gust MPH | rain 1hr in | rain 24hr in | rain mn in | humidity % | barometer mb |
| 20260506201156 | 57 | 205 | 4.0 | 9.0 | 0.00 | 0.00 | 0.00 | 38 | 1013.0 |
| 20260506200654 | 56 | 163 | 1.0 | 2.0 | 0.00 | 0.00 | 0.00 | 44 | 1013.0 |
| 20260506200150 | 58 | 6 | 1.0 | 3.0 | 0.00 | 0.00 | 0.00 | 41 | 1013.1 |
| 20260506195647 | 58 | 287 | 6.0 | 7.0 | 0.00 | 0.00 | 0.00 | 40 | 1013.3 |
| 20260506195143 | 58 | 104 | 2.0 | 3.0 | 0.00 | 0.00 | 0.00 | 41 | 1013.2 |
| 20260506194641 | 57 | 277 | 4.0 | 7.0 | 0.00 | 0.00 | 0.00 | 44 | 1013.2 |
| 20260506194137 | 59 | 274 | 3.0 | 7.0 | 0.00 | 0.00 | 0.00 | 38 | 1013.2 |
| 20260506193635 | 58 | 142 | 2.0 | 5.0 | 0.00 | 0.00 | 0.00 | 44 | 1013.3 |
| 20260506193132 | 58 | 50 | 2.0 | 11.0 | 0.00 | 0.00 | 0.00 | 38 | 1013.2 |
| 20260506192628 | 58 | 358 | 3.0 | 5.0 | 0.00 | 0.00 | 0.00 | 41 | 1013.1 |
| 20260506192124 | 57 | 307 | 3.0 | 6.0 | 0.00 | 0.00 | 0.00 | 41 | 1013.3 |
| 20260506191621 | 58 | 260 | 3.0 | 7.0 | 0.00 | 0.00 | 0.00 | 45 | 1013.1 |
| 20260506191117 | 57 | 134 | 2.0 | 6.0 | 0.00 | 0.00 | 0.00 | 40 | 1013.1 |
| 20260506190615 | 57 | 346 | 4.0 | 6.0 | 0.00 | 0.00 | 0.00 | 45 | 1013.3 |
| 20260506190112 | 56 | 251 | 2.0 | 5.0 | 0.00 | 0.00 | 0.00 | 43 | 1013.1 |
| 20260506185609 | 55 | 120 | 1.0 | 5.0 | 0.00 | 0.00 | 0.00 | 44 | 1013.0 |
| 20260506185105 | 54 | 73 | 2.0 | 6.0 | 0.00 | 0.00 | 0.00 | 44 | 1013.1 |
| 20260506184602 | 56 | 92 | 2.0 | 5.0 | 0.00 | 0.00 | 0.00 | 42 | 1013.4 |
| 20260506184100 | 56 | 181 | 1.0 | 3.0 | 0.00 | 0.00 | 0.00 | 46 | 1013.3 |
| 20260506183556 | 55 | 46 | 2.0 | 3.0 | 0.00 | 0.00 | 0.00 | 44 | 1013.2 |
| 20260506183052 | 55 | 25 | 2.0 | 3.0 | 0.00 | 0.00 | 0.00 | 43 | 1013.3 |
| 20260506182550 | 53 | 298 | 3.0 | 6.0 | 0.00 | 0.00 | 0.00 | 45 | 1013.1 |
| 20260506182047 | 54 | 9 | 4.0 | 5.0 | 0.00 | 0.00 | 0.00 | 45 | 1013.4 |
| 20260506181545 | 55 | 348 | 3.0 | 6.0 | 0.00 | 0.00 | 0.00 | 44 | 1013.3 |
| 20260506181041 | 55 | 288 | 3.0 | 3.0 | 0.00 | 0.00 | 0.00 | 45 | 1013.1 |
| 20260506180538 | 53 | 75 | 1.0 | 2.0 | 0.00 | 0.00 | 0.00 | 43 | 1013.0 |
| 20260506180035 | 54 | 172 | 3.0 | 5.0 | 0.00 | 0.00 | 0.00 | 44 | 1013.1 |
| 20260506175531 | 54 | 137 | 1.0 | 6.0 | 0.00 | 0.00 | 0.00 | 48 | 1013.4 |
| 20260506175028 | 54 | 302 | 2.0 | 3.0 | 0.00 | 0.00 | 0.00 | 44 | 1013.3 |
| 20260506174527 | 54 | 358 | 3.0 | 3.0 | 0.00 | 0.00 | 0.00 | 46 | 1013.4 |
| 20260506174022 | 54 | 247 | 1.0 | 2.0 | 0.00 | 0.00 | 0.00 | 46 | 1013.4 |
| 20260506173520 | 53 | 268 | 2.0 | 3.0 | 0.00 | 0.00 | 0.00 | 46 | 1013.5 |
| 20260506173017 | 54 | 285 | 2.0 | 3.0 | 0.00 | 0.00 | 0.00 | 50 | 1013.6 |
| 20260506172514 | 54 | 314 | 2.0 | 5.0 | 0.00 | 0.00 | 0.00 | 46 | 1013.5 |
| 20260506172010 | 54 | 356 | 4.0 | 6.0 | 0.00 | 0.00 | 0.00 | 43 | 1013.5 |
| 20260506171508 | 54 | 65 | 3.0 | 6.0 | 0.00 | 0.00 | 0.00 | 45 | 1013.7 |
| 20260506171005 | 55 | 119 | 1.0 | 2.0 | 0.00 | 0.00 | 0.00 | 43 | 1013.4 |
| 20260506170501 | 54 | 33 | 2.0 | 3.0 | 0.00 | 0.00 | 0.00 | 45 | 1013.5 |
| 20260506165954 | 54 | 323 | 3.0 | 6.0 | 0.00 | 0.00 | 0.00 | 46 | 1013.7 |
| 20260506165452 | 54 | 7 | 2.0 | 3.0 | 0.00 | 0.00 | 0.00 | 44 | 1013.7 |
| 20260506164942 | 56 | 271 | 5.0 | 6.0 | 0.00 | 0.00 | 0.00 | 42 | 1013.7 |
| 20260506164439 | 55 | 330 | 2.0 | 7.0 | 0.00 | 0.00 | 0.00 | 45 | 1013.6 |
| 20260506163937 | 53 | 78 | 3.0 | 3.0 | 0.00 | 0.00 | 0.00 | 47 | 1013.4 |
| 20260506163432 | 53 | 293 | 4.0 | 5.0 | 0.00 | 0.00 | 0.00 | 46 | 1013.4 |
| 20260506162927 | 54 | 350 | 2.0 | 3.0 | 0.00 | 0.00 | 0.00 | 46 | 1013.5 |
| 20260506162424 | 53 | 268 | 3.0 | 5.0 | 0.00 | 0.00 | 0.00 | 45 | 1013.5 |
| 20260506161916 | 54 | 52 | 2.0 | 6.0 | 0.00 | 0.00 | 0.00 | 45 | 1013.6 |
| 20260506161414 | 54 | 132 | 2.0 | 6.0 | 0.00 | 0.00 | 0.00 | 50 | 1013.4 |
| 20260506160906 | 54 | 269 | 3.0 | 6.0 | 0.00 | 0.00 | 0.00 | 44 | 1013.5 |
| 20260506160402 | 54 | 108 | 1.0 | 3.0 | 0.00 | 0.00 | 0.00 | 51 | 1013.4 |
| 20260506155900 | 53 | 325 | 4.0 | 5.0 | 0.00 | 0.00 | 0.00 | 46 | 1013.5 |
| 20260506155356 | 54 | 266 | 3.0 | 7.0 | 0.00 | 0.00 | 0.00 | 48 | 1013.5 |
| 20260506153514 | 54 | 205 | 3.0 | 5.0 | 0.00 | 0.00 | 0.00 | 43 | 1013.4 |
| 20260506153011 | 53 | 39 | 1.0 | 5.0 | 0.00 | 0.00 | 0.00 | 49 | 1013.7 |
| 20260506152508 | 52 | 168 | 1.0 | 3.0 | 0.00 | 0.00 | 0.00 | 49 | 1013.6 |
| 20260506152006 | 52 | 95 | 2.0 | 5.0 | 0.00 | 0.00 | 0.00 | 47 | 1013.7 |
| 20260506151503 | 53 | 104 | 2.0 | 3.0 | 0.00 | 0.00 | 0.00 | 46 | 1013.8 |
| 20260506151001 | 53 | 155 | 2.0 | 3.0 | 0.00 | 0.00 | 0.00 | 46 | 1013.6 |
| 20260506150457 | 53 | 268 | 3.0 | 3.0 | 0.00 | 0.00 | 0.00 | 47 | 1013.6 |
| 20260506145954 | 53 | 97 | 1.0 | 3.0 | 0.00 | 0.00 | 0.00 | 46 | 1013.6 |
| 20260506145450 | 53 | 42 | 2.0 | 2.0 | 0.00 | 0.00 | 0.00 | 47 | 1013.7 |
| 20260506144948 | 52 | 66 | 1.0 | 3.0 | 0.00 | 0.00 | 0.00 | 46 | 1013.8 |
| 20260506144444 | 52 | 52 | 2.0 | 2.0 | 0.00 | 0.00 | 0.00 | 47 | 1013.6 |
| 20260506143942 | 53 | 61 | 2.0 | 3.0 | 0.00 | 0.00 | 0.00 | 49 | 1013.6 |
| 20260506143439 | 53 | 71 | 1.0 | 3.0 | 0.00 | 0.00 | 0.00 | 48 | 1013.8 |
| 20260506142938 | 52 | 22 | 1.0 | 1.0 | 0.00 | 0.00 | 0.00 | 49 | 1013.7 |
| 20260506142435 | 53 | 357 | 3.0 | 6.0 | 0.00 | 0.00 | 0.00 | 47 | 1013.8 |
| 20260506141933 | 53 | 160 | 2.0 | 6.0 | 0.00 | 0.00 | 0.00 | 46 | 1013.8 |
| 20260506141430 | 53 | 178 | 2.0 | 3.0 | 0.00 | 0.00 | 0.00 | 48 | 1013.5 |
| 20260506140929 | 52 | 100 | 1.0 | 5.0 | 0.00 | 0.00 | 0.00 | 46 | 1013.7 |
| 20260506140426 | 52 | 103 | 0.0 | 2.0 | 0.00 | 0.00 | 0.00 | 45 | 1013.7 |
| 20260506135922 | 51 | 150 | 1.0 | 2.0 | 0.00 | 0.00 | 0.00 | 49 | 1013.7 |
| 20260506135420 | 51 | 160 | 1.0 | 2.0 | 0.00 | 0.00 | 0.00 | 54 | 1013.6 |
| 20260506134915 | 50 | 152 | 1.0 | 2.0 | 0.00 | 0.00 | 0.00 | 53 | 1013.3 |
| 20260506134412 | 50 | 142 | 1.0 | 2.0 | 0.00 | 0.00 | 0.00 | 54 | 1013.3 |
| 20260506133909 | 50 | 114 | 1.0 | 2.0 | 0.00 | 0.00 | 0.00 | 57 | 1013.2 |
| 20260506133406 | 49 | 67 | 1.0 | 2.0 | 0.00 | 0.00 | 0.00 | 59 | 1013.3 |
| 20260506132902 | 48 | 109 | 0.0 | 1.0 | 0.00 | 0.00 | 0.00 | 62 | 1013.1 |
| 20260506132359 | 48 | 91 | 0.0 | 1.0 | 0.00 | 0.00 | 0.00 | 65 | 1013.1 |
| 20260506131858 | 48 | 106 | 0.0 | 1.0 | 0.00 | 0.00 | 0.00 | 65 | 1013.0 |
| 20260506131353 | 47 | 116 | 0.0 | 1.0 | 0.00 | 0.00 | 0.00 | 65 | 1013.1 |
| 20260506130851 | 47 | 122 | 0.0 | 1.0 | 0.00 | 0.00 | 0.00 | 70 | 1012.9 |
| 20260506130347 | 46 | 85 | 0.0 | 1.0 | 0.00 | 0.00 | 0.00 | 75 | 1013.0 |
| 20260506125845 | 46 | 123 | 0.0 | 0.0 | 0.00 | 0.00 | 0.00 | 75 | 1012.9 |
| 20260506125343 | 46 | 94 | 0.0 | 0.0 | 0.00 | 0.00 | 0.00 | 77 | 1012.8 |
| 20260506124841 | 45 | 127 | 0.0 | 0.0 | 0.00 | 0.00 | 0.00 | 75 | 1012.8 |
| 20260506124338 | 45 | 89 | 0.0 | 0.0 | 0.00 | 0.00 | 0.00 | 77 | 1012.8 |
| 20260506123836 | 45 | 88 | 0.0 | 0.0 | 0.00 | 0.00 | 0.00 | 78 | 1012.6 |
| 20260506123334 | 44 | 90 | 0.0 | 0.0 | 0.00 | 0.00 | 0.00 | 77 | 1012.5 |
| 20260506122831 | 44 | 90 | 0.0 | 0.0 | 0.00 | 0.00 | 0.00 | 75 | 1012.4 |
| 20260506122328 | 43 | 90 | 0.0 | 0.0 | 0.00 | 0.00 | 0.00 | 76 | 1012.6 |
| 20260506121826 | 43 | 90 | 0.0 | 0.0 | 0.00 | 0.00 | 0.00 | 77 | 1012.5 |
| 20260506121323 | 42 | 90 | 0.0 | 0.0 | 0.00 | 0.00 | 0.00 | 79 | 1012.3 |
| 20260506120820 | 42 | 91 | 0.0 | 0.0 | 0.00 | 0.00 | 0.00 | 81 | 1012.3 |
| 20260506120318 | 42 | 91 | 0.0 | 0.0 | 0.00 | 0.00 | 0.00 | 82 | 1012.3 |
| 20260506115815 | 41 | 91 | 0.0 | 0.0 | 0.00 | 0.00 | 0.00 | 84 | 1012.2 |
| 20260506115313 | 41 | 91 | 0.0 | 0.0 | 0.00 | 0.00 | 0.00 | 84 | 1011.9 |
| 20260506114810 | 40 | 91 | 0.0 | 0.0 | 0.00 | 0.00 | 0.00 | 85 | 1012.2 |
| 20260506114308 | 39 | 91 | 0.0 | 0.0 | 0.00 | 0.00 | 0.00 | 87 | 1011.9 |
| 20260506113806 | 39 | 90 | 0.0 | 0.0 | 0.00 | 0.00 | 0.00 | 88 | 1012.1 |
| 20260506113304 | 38 | 88 | 0.0 | 0.0 | 0.00 | 0.00 | 0.00 | 89 | 1011.8 |
| 20260506112800 | 38 | 87 | 0.0 | 0.0 | 0.00 | 0.00 | 0.00 | 89 | 1011.8 |
| 20260506112257 | 37 | 87 | 0.0 | 0.0 | 0.00 | 0.00 | 0.00 | 89 | 1011.9 |
| 20260506111755 | 37 | 87 | 0.0 | 0.0 | 0.00 | 0.00 | 0.00 | 89 | 1012.2 |
| 20260506111253 | 37 | 87 | 0.0 | 0.0 | 0.00 | 0.00 | 0.00 | 89 | 1011.7 |
| 20260506110750 | 37 | 87 | 0.0 | 0.0 | 0.00 | 0.00 | 0.00 | 88 | 1011.7 |
| 20260506110247 | 37 | 86 | 0.0 | 0.0 | 0.00 | 0.00 | 0.00 | 88 | 1012.1 |
| 20260506105743 | 37 | 87 | 0.0 | 0.0 | 0.00 | 0.00 | 0.00 | 87 | 1011.9 |
| 20260506105240 | 37 | 87 | 0.0 | 0.0 | 0.00 | 0.00 | 0.00 | 87 | 1011.8 |
| 20260506104738 | 37 | 86 | 0.0 | 0.0 | 0.00 | 0.00 | 0.00 | 87 | 1011.8 |
| 20260506104236 | 37 | 84 | 0.0 | 0.0 | 0.00 | 0.00 | 0.00 | 87 | 1011.6 |
| 20260506103732 | 37 | 85 | 0.0 | 0.0 | 0.00 | 0.00 | 0.00 | 87 | 1011.7 |
| 20260506103230 | 37 | 85 | 0.0 | 0.0 | 0.00 | 0.00 | 0.00 | 86 | 1011.3 |
| 20260506102728 | 38 | 85 | 0.0 | 0.0 | 0.00 | 0.00 | 0.00 | 86 | 1011.2 |
| 20260506102225 | 38 | 84 | 0.0 | 0.0 | 0.00 | 0.00 | 0.00 | 86 | 1011.0 |
| 20260506101722 | 38 | 84 | 0.0 | 0.0 | 0.00 | 0.00 | 0.00 | 85 | 1011.0 |
| 20260506101219 | 38 | 84 | 0.0 | 0.0 | 0.00 | 0.00 | 0.00 | 84 | 1010.9 |
| 20260506100717 | 38 | 84 | 0.0 | 0.0 | 0.00 | 0.00 | 0.00 | 83 | 1011.0 |
| 20260506100215 | 38 | 84 | 0.0 | 0.0 | 0.00 | 0.00 | 0.00 | 82 | 1010.8 |
| 20260506095713 | 38 | 84 | 0.0 | 0.0 | 0.00 | 0.00 | 0.00 | 83 | 1011.0 |
| 20260506095209 | 38 | 84 | 0.0 | 0.0 | 0.00 | 0.00 | 0.00 | 82 | 1011.0 |
| 20260506094706 | 39 | 84 | 0.0 | 0.0 | 0.00 | 0.00 | 0.00 | 82 | 1010.8 |
| 20260506094204 | 39 | 84 | 0.0 | 0.0 | 0.00 | 0.00 | 0.00 | 81 | 1010.9 |
| 20260506093703 | 39 | 84 | 0.0 | 0.0 | 0.00 | 0.00 | 0.00 | 80 | 1011.3 |
| 20260506093159 | 39 | 84 | 0.0 | 0.0 | 0.00 | 0.00 | 0.00 | 81 | 1011.1 |
| 20260506092657 | 39 | 84 | 0.0 | 0.0 | 0.00 | 0.00 | 0.00 | 81 | 1011.0 |
| 20260506092154 | 40 | 82 | 0.0 | 0.0 | 0.00 | 0.00 | 0.00 | 82 | 1011.1 |
| 20260506091652 | 40 | 77 | 0.0 | 0.0 | 0.00 | 0.00 | 0.00 | 82 | 1011.0 |
| 20260506091149 | 40 | 75 | 0.0 | 0.0 | 0.00 | 0.00 | 0.00 | 82 | 1011.0 |
| 20260506090647 | 40 | 75 | 0.0 | 0.0 | 0.00 | 0.00 | 0.00 | 82 | 1010.9 |
| 20260506090143 | 40 | 75 | 0.0 | 0.0 | 0.00 | 0.00 | 0.00 | 79 | 1011.0 |
| 20260506085640 | 39 | 75 | 0.0 | 0.0 | 0.00 | 0.00 | 0.00 | 79 | 1011.0 |
| 20260506085136 | 39 | 75 | 0.0 | 0.0 | 0.00 | 0.00 | 0.00 | 79 | 1011.1 |
| 20260506084633 | 39 | 75 | 0.0 | 0.0 | 0.00 | 0.00 | 0.00 | 80 | 1011.1 |
| 20260506084130 | 40 | 75 | 0.0 | 0.0 | 0.00 | 0.00 | 0.00 | 79 | 1011.0 |
| 20260506083627 | 40 | 75 | 0.0 | 0.0 | 0.00 | 0.00 | 0.00 | 77 | 1010.9 |
| 20260506083125 | 40 | 75 | 0.0 | 0.0 | 0.00 | 0.00 | 0.00 | 76 | 1010.8 |
| 20260506082621 | 39 | 75 | 0.0 | 0.0 | 0.00 | 0.00 | 0.00 | 78 | 1010.8 |
| 20260506082117 | 40 | 75 | 0.0 | 0.0 | 0.00 | 0.00 | 0.00 | 78 | 1010.7 |
| 20260506081615 | 40 | 75 | 0.0 | 0.0 | 0.00 | 0.00 | 0.00 | 77 | 1010.6 |
| 20260506081113 | 40 | 75 | 0.0 | 0.0 | 0.00 | 0.00 | 0.00 | 76 | 1010.8 |
| 20260506080610 | 40 | 75 | 0.0 | 0.0 | 0.00 | 0.00 | 0.00 | 75 | 1010.7 |
| 20260506080107 | 41 | 75 | 0.0 | 0.0 | 0.00 | 0.00 | 0.00 | 74 | 1010.8 |
| 20260506073050 | 43 | 61 | 0.0 | 0.0 | 0.00 | 0.00 | 0.00 | 69 | 1010.6 |
| 20260506072547 | 43 | 60 | 1.0 | 1.0 | 0.00 | 0.00 | 0.00 | 67 | 1010.4 |
| 20260506072045 | 44 | 80 | 0.0 | 1.0 | 0.00 | 0.00 | 0.00 | 64 | 1010.2 |
| 20260506071543 | 44 | 73 | 0.0 | 1.0 | 0.00 | 0.00 | 0.00 | 61 | 1010.3 |
| 20260506071040 | 43 | 81 | 0.0 | 1.0 | 0.00 | 0.00 | 0.00 | 64 | 1010.5 |
| 20260506070537 | 43 | 79 | 0.0 | 0.0 | 0.00 | 0.00 | 0.00 | 67 | 1010.5 |
| 20260506062514 | 47 | 78 | 0.0 | 0.0 | 0.00 | 0.00 | 0.00 | 59 | 1010.4 |
| 20260506062011 | 47 | 73 | 0.0 | 1.0 | 0.00 | 0.00 | 0.00 | 58 | 1010.4 |
| 20260506061507 | 47 | 80 | 1.0 | 2.0 | 0.00 | 0.00 | 0.00 | 56 | 1010.4 |
| 20260506061005 | 47 | 87 | 0.0 | 1.0 | 0.00 | 0.00 | 0.00 | 56 | 1010.3 |
| 20260506060503 | 45 | 58 | 1.0 | 2.0 | 0.00 | 0.00 | 0.00 | 61 | 1010.3 |
| 20260506050932 | 49 | 75 | 1.0 | 1.0 | 0.00 | 0.00 | 0.00 | 56 | 1009.9 |
| 20260506050430 | 49 | 83 | 0.0 | 0.0 | 0.00 | 0.00 | 0.00 | 56 | 1009.9 |
| 20260506044920 | 50 | 80 | 0.0 | 1.0 | 0.00 | 0.08 | 0.08 | 53 | 1009.7 |
| 20260506044418 | 50 | 88 | 0.0 | 0.0 | 0.00 | 0.08 | 0.08 | 56 | 1009.7 |
| 20260506043915 | 50 | 72 | 1.0 | 1.0 | 0.00 | 0.08 | 0.08 | 52 | 1009.8 |
| 20260506043412 | 50 | 85 | 0.0 | 1.0 | 0.00 | 0.08 | 0.08 | 57 | 1009.9 |
| 20260506042910 | 50 | 85 | 0.0 | 1.0 | 0.00 | 0.08 | 0.08 | 58 | 1009.7 |
| 20260506042409 | 50 | 73 | 1.0 | 3.0 | 0.00 | 0.08 | 0.08 | 56 | 1010.0 |
| 20260506041907 | 51 | 84 | 0.0 | 1.0 | 0.00 | 0.08 | 0.08 | 54 | 1009.9 |
| 20260506041404 | 50 | 84 | 1.0 | 3.0 | 0.00 | 0.08 | 0.08 | 54 | 1010.0 |
| 20260506040901 | 51 | 84 | 0.0 | 1.0 | 0.00 | 0.08 | 0.08 | 54 | 1010.1 |
| 20260506040358 | 51 | 30 | 1.0 | 1.0 | 0.00 | 0.08 | 0.08 | 54 | 1010.0 |
| 20260506035854 | 51 | 95 | 0.0 | 1.0 | 0.00 | 0.08 | 0.08 | 55 | 1010.1 |
| 20260506035352 | 51 | 105 | 0.0 | 3.0 | 0.00 | 0.08 | 0.08 | 55 | 1010.1 |
| 20260506034849 | 50 | 84 | 0.0 | 1.0 | 0.00 | 0.08 | 0.08 | 57 | 1010.0 |
| 20260506034346 | 50 | 89 | 0.0 | 0.0 | 0.00 | 0.08 | 0.08 | 62 | 1009.7 |
| 20260506033843 | 49 | 93 | 0.0 | 0.0 | 0.00 | 0.08 | 0.08 | 65 | 1009.8 |
| 20260506033340 | 49 | 96 | 0.0 | 0.0 | 0.00 | 0.08 | 0.08 | 67 | 1009.9 |
| 20260506032837 | 49 | 101 | 0.0 | 0.0 | 0.00 | 0.08 | 0.08 | 65 | 1009.9 |
| 20260506032333 | 49 | 100 | 0.0 | 0.0 | 0.00 | 0.08 | 0.08 | 63 | 1009.5 |
| 20260506031831 | 49 | 96 | 0.0 | 0.0 | 0.00 | 0.08 | 0.08 | 62 | 1009.5 |
| 20260506031328 | 49 | 96 | 0.0 | 0.0 | 0.00 | 0.08 | 0.08 | 63 | 1009.3 |
| 20260506030825 | 49 | 96 | 0.0 | 0.0 | 0.00 | 0.08 | 0.08 | 64 | 1009.3 |
| 20260506030323 | 49 | 96 | 0.0 | 0.0 | 0.00 | 0.08 | 0.08 | 62 | 1009.4 |
| 20260506025820 | 49 | 96 | 0.0 | 0.0 | 0.00 | 0.08 | 0.08 | 63 | 1009.3 |
| 20260506025316 | 50 | 96 | 0.0 | 0.0 | 0.00 | 0.08 | 0.08 | 65 | 1009.3 |
| 20260506024813 | 50 | 96 | 0.0 | 0.0 | 0.00 | 0.08 | 0.08 | 62 | 1009.3 |
| 20260506024310 | 50 | 96 | 0.0 | 0.0 | 0.00 | 0.08 | 0.08 | 62 | 1009.3 |
| 20260506023806 | 50 | 95 | 0.0 | 0.0 | 0.00 | 0.08 | 0.08 | 64 | 1009.2 |
| 20260506023303 | 50 | 97 | 0.0 | 0.0 | 0.00 | 0.08 | 0.08 | 63 | 1009.3 |
| 20260506022800 | 50 | 97 | 0.0 | 0.0 | 0.00 | 0.08 | 0.08 | 63 | 1009.7 |
| 20260506022258 | 50 | 111 | 0.0 | 0.0 | 0.00 | 0.08 | 0.08 | 61 | 1009.4 |
| 20260506021756 | 50 | 97 | 0.0 | 0.0 | 0.00 | 0.08 | 0.08 | 60 | 1009.2 |
| 20260506021252 | 50 | 97 | 0.0 | 0.0 | 0.00 | 0.08 | 0.08 | 60 | 1009.0 |
| 20260506020749 | 50 | 97 | 0.0 | 0.0 | 0.00 | 0.08 | 0.08 | 62 | 1009.1 |
| 20260506020247 | 50 | 101 | 0.0 | 0.0 | 0.00 | 0.08 | 0.08 | 63 | 1009.0 |
| 20260506015744 | 50 | 101 | 0.0 | 0.0 | 0.00 | 0.08 | 0.08 | 60 | 1009.1 |
| 20260506015242 | 50 | 91 | 0.0 | 0.0 | 0.00 | 0.08 | 0.08 | 62 | 1008.7 |
| 20260506014738 | 50 | 90 | 0.0 | 0.0 | 0.00 | 0.08 | 0.08 | 60 | 1008.4 |
| 20260506014235 | 51 | 89 | 0.0 | 0.0 | 0.00 | 0.08 | 0.08 | 60 | 1008.4 |
| 20260506013732 | 51 | 88 | 0.0 | 0.0 | 0.00 | 0.08 | 0.08 | 62 | 1008.6 |
| 20260506013229 | 51 | 104 | 0.0 | 0.0 | 0.00 | 0.08 | 0.08 | 58 | 1008.6 |
| 20260506012725 | 51 | 99 | 0.0 | 0.0 | 0.00 | 0.08 | 0.08 | 57 | 1008.6 |
| 20260506012223 | 52 | 88 | 0.0 | 0.0 | 0.00 | 0.08 | 0.08 | 58 | 1008.3 |
| 20260506011720 | 52 | 86 | 0.0 | 0.0 | 0.00 | 0.08 | 0.08 | 58 | 1008.2 |
| 20260506011216 | 52 | 84 | 0.0 | 1.0 | 0.00 | 0.08 | 0.08 | 57 | 1008.2 |
| 20260506010715 | 52 | 86 | 0.0 | 1.0 | 0.00 | 0.08 | 0.08 | 55 | 1008.2 |
| 20260506010211 | 52 | 87 | 0.0 | 0.0 | 0.00 | 0.08 | 0.08 | 55 | 1008.4 |
| 20260506005709 | 52 | 80 | 0.0 | 1.0 | 0.00 | 0.08 | 0.08 | 56 | 1008.1 |
| 20260506005205 | 53 | 87 | 0.0 | 1.0 | 0.00 | 0.08 | 0.08 | 54 | 1008.2 |
| 20260506004701 | 53 | 83 | 0.0 | 1.0 | 0.00 | 0.08 | 0.08 | 50 | 1008.1 |
| 20260506004159 | 53 | 129 | 1.0 | 1.0 | 0.00 | 0.08 | 0.08 | 50 | 1008.0 |
| 20260506003655 | 53 | 80 | 0.0 | 1.0 | 0.00 | 0.08 | 0.08 | 49 | 1007.9 |
| 20260506003151 | 53 | 87 | 1.0 | 2.0 | 0.00 | 0.08 | 0.08 | 48 | 1007.9 |
| 20260506002647 | 53 | 54 | 1.0 | 2.0 | 0.00 | 0.08 | 0.08 | 49 | 1007.6 |
| 20260506002143 | 53 | 86 | 1.0 | 2.0 | 0.00 | 0.08 | 0.08 | 47 | 1007.8 |
| 20260506001639 | 53 | 74 | 1.0 | 1.0 | 0.00 | 0.08 | 0.08 | 46 | 1007.7 |
| 20260506001137 | 54 | 98 | 0.0 | 1.0 | 0.00 | 0.08 | 0.08 | 49 | 1007.8 |
| 20260506000634 | 54 | 46 | 1.0 | 5.0 | 0.00 | 0.08 | 0.08 | 47 | 1008.1 |
| 20260506000131 | 54 | 46 | 1.0 | 3.0 | 0.00 | 0.08 | 0.08 | 48 | 1007.8 |
| 20260505235629 | 54 | 71 | 1.0 | 3.0 | 0.00 | 0.08 | 0.08 | 47 | 1007.8 |
| 20260505235126 | 54 | 66 | 1.0 | 2.0 | 0.00 | 0.08 | 0.08 | 50 | 1007.7 |
| 20260505234617 | 54 | 58 | 1.0 | 2.0 | 0.00 | 0.08 | 0.08 | 47 | 1007.9 |
| 20260505234114 | 54 | 70 | 1.0 | 2.0 | 0.00 | 0.08 | 0.08 | 46 | 1007.6 |
| 20260505233612 | 54 | 136 | 0.0 | 2.0 | 0.00 | 0.08 | 0.08 | 49 | 1007.8 |
| 20260505233109 | 54 | 71 | 1.0 | 3.0 | 0.00 | 0.08 | 0.08 | 45 | 1007.8 |
| 20260505232607 | 54 | 261 | 2.0 | 3.0 | 0.00 | 0.08 | 0.08 | 47 | 1008.0 |
| 20260505232104 | 54 | 32 | 1.0 | 3.0 | 0.00 | 0.08 | 0.08 | 44 | 1008.0 |
| 20260505231601 | 55 | 28 | 2.0 | 2.0 | 0.00 | 0.08 | 0.08 | 46 | 1008.1 |
| 20260505231059 | 55 | 115 | 1.0 | 2.0 | 0.00 | 0.08 | 0.08 | 43 | 1007.9 |
| 20260505230557 | 55 | 75 | 0.0 | 2.0 | 0.00 | 0.08 | 0.08 | 41 | 1007.8 |
| 20260505230053 | 55 | 353 | 3.0 | 3.0 | 0.00 | 0.08 | 0.08 | 42 | 1008.2 |
| 20260505225550 | 55 | 54 | 2.0 | 2.0 | 0.00 | 0.08 | 0.08 | 48 | 1007.9 |
| 20260505225046 | 55 | 56 | 1.0 | 2.0 | 0.00 | 0.08 | 0.08 | 44 | 1008.1 |
| 20260505224543 | 55 | 264 | 3.0 | 3.0 | 0.00 | 0.08 | 0.08 | 45 | 1008.1 |
| 20260505224040 | 55 | 80 | 2.0 | 5.0 | 0.00 | 0.08 | 0.08 | 44 | 1008.5 |
| 20260505223537 | 55 | 9 | 1.0 | 5.0 | 0.00 | 0.08 | 0.08 | 46 | 1008.2 |
| 20260505223033 | 55 | 55 | 2.0 | 3.0 | 0.00 | 0.08 | 0.08 | 42 | 1008.2 |
| 20260505222530 | 55 | 289 | 2.0 | 3.0 | 0.00 | 0.08 | 0.08 | 42 | 1008.3 |
| 20260505222026 | 55 | 297 | 3.0 | 3.0 | 0.00 | 0.08 | 0.08 | 42 | 1008.3 |
| 20260505221523 | 56 | 260 | 2.0 | 3.0 | 0.00 | 0.08 | 0.08 | 48 | 1008.4 |
| 20260505221020 | 56 | 348 | 3.0 | 5.0 | 0.00 | 0.08 | 0.08 | 43 | 1008.1 |
| 20260505220517 | 56 | 26 | 1.0 | 2.0 | 0.00 | 0.08 | 0.08 | 44 | 1008.3 |
| 20260505220015 | 55 | 277 | 2.0 | 5.0 | 0.00 | 0.08 | 0.08 | 40 | 1008.3 |
| 20260505215513 | 55 | 187 | 1.0 | 2.0 | 0.00 | 0.08 | 0.08 | 42 | 1008.6 |
| 20260505215010 | 55 | 76 | 1.0 | 2.0 | 0.00 | 0.08 | 0.08 | 44 | 1008.6 |
| 20260505214508 | 55 | 105 | 1.0 | 3.0 | 0.00 | 0.08 | 0.08 | 44 | 1008.3 |
| 20260505214004 | 55 | 79 | 1.0 | 2.0 | 0.00 | 0.08 | 0.08 | 46 | 1008.5 |
| 20260505213503 | 55 | 277 | 2.0 | 2.0 | 0.00 | 0.08 | 0.08 | 47 | 1008.4 |
| 20260505212958 | 55 | 267 | 3.0 | 3.0 | 0.00 | 0.08 | 0.08 | 40 | 1008.3 |
| 20260505212455 | 56 | 315 | 1.0 | 5.0 | 0.00 | 0.08 | 0.08 | 45 | 1008.3 |
| 20260505211952 | 56 | 310 | 2.0 | 3.0 | 0.00 | 0.08 | 0.08 | 42 | 1008.6 |
| 20260505211449 | 55 | 167 | 1.0 | 5.0 | 0.00 | 0.08 | 0.08 | 40 | 1008.4 |
| 20260505210945 | 55 | 71 | 2.0 | 5.0 | 0.00 | 0.08 | 0.08 | 42 | 1008.5 |
| 20260505210443 | 55 | 132 | 1.0 | 5.0 | 0.00 | 0.08 | 0.08 | 42 | 1008.4 |
| 20260505205939 | 55 | 275 | 3.0 | 3.0 | 0.00 | 0.08 | 0.08 | 40 | 1008.3 |
| 20260505205438 | 55 | 254 | 3.0 | 3.0 | 0.00 | 0.08 | 0.08 | 42 | 1008.4 |
| 20260505204934 | 55 | 78 | 2.0 | 3.0 | 0.00 | 0.08 | 0.08 | 44 | 1008.4 |
| 20260505204432 | 55 | 293 | 3.0 | 3.0 | 0.00 | 0.08 | 0.08 | 45 | 1008.4 |
| 20260505203929 | 55 | 258 | 2.0 | 5.0 | 0.00 | 0.08 | 0.08 | 42 | 1008.5 |
| 20260505203426 | 55 | 261 | 4.0 | 5.0 | 0.00 | 0.08 | 0.08 | 40 | 1008.7 |
| 20260505202922 | 55 | 77 | 3.0 | 3.0 | 0.00 | 0.08 | 0.08 | 42 | 1008.5 |
| 20260505202418 | 55 | 3 | 5.0 | 6.0 | 0.00 | 0.08 | 0.08 | 39 | 1008.4 |
| 20260505201915 | 55 | 233 | 2.0 | 5.0 | 0.00 | 0.08 | 0.08 | 42 | 1008.7 |
| 20260505201412 | 55 | 157 | 2.0 | 5.0 | 0.00 | 0.08 | 0.08 | 42 | 1008.6 |